Location: Bluff Heights
(33.7692°N, 118.1592°W)
Time: 08:48:58
(UTC+00:00)

Tiros 1 - Pass Details

Date: 30 July 2021
Orbit: 630 x 663 km, 48.4° (Epoch: 22 September)

Event Time Altitude Azimuth Distance (km) Brightness Sun altitude
Rises 02:32:55 0° 244° (WSW) 2,977 11.3 3.5°
Reaches altitude 10° 02:35:19 10° 250° (WSW) 2,064 10.6 3.0°
Maximum altitude 02:39:58 51° 326° (NW) 819 8.3 2.1°
Drops below altitude 10° 02:44:35 10° 43° (NE) 2,053 9.5 1.2°
Sets 02:46:59 0° 48° (NE) 2,960 10.3 0.7°
